STARLINK-11180, 60185

Orbit data source: Space-Track

STARLINK-11180, 60185 is a payload satellite owned by SpaceX/Seattle (US) in LEO that was launched on Wed, 03 Jul 2024 UTC via an FALCON 9 launch vehicle from the Air Force Eastern Test Range (AFETR). Payload-class satellites include a variety of spacecraft equipped with specific instruments for various scientific and technological missions. These include communications satellites like Starlink; space stations such as the ISS; scientific satellites like the Hubble; Earth observation satellites from companies like Planet Labs, Umbra, and HawkEye 360; GPS; miniature CubeSats for education and research; and military/defense satellites.

Loading next visibility...
Identifier
60185, 2024-124C
Orbit
LEO
Country
Flag of USUS
Related business
Manufacturer
SpaceX/Seattle
Mission
Operational spacecraft
Bus & Motor
STARLINK V2MD, Unknown motor
Mass
960 kg wet, ~910 kg dry
Launch date (UTC)
2024-07-03 (1 year ago)
Launch vehicle
FALCON 9
Launch site
Air Force Eastern Test Range (AFETR)
Object type
Payload
Rocket body
Debris
Shape & HBR
Unknown shape, 18.1 m
Radar Cross Section
Large (>1 m²)

Expand to show TLE details & history
Last TLE update: 11 hours ago

TLE from 11 hours ago
0 STARLINK-11180
1 60185U 24124C   25292.06939296  .00002535  00000-0  25759-4 0  9994
2 60185  53.1580 139.2015 0000694 127.8687 232.2394 15.69721239 74295
Epoch: 2025-10-19T01:39Z
TLE epoch observation values (Epoch: 2025-10-19T01:39:55.551Z)
Latitude
-0.00002°
Longitude
86.42868°
Altitude
360.896 km
Speed
7.694 km/s
True Right ascension
09h 16m 48s
True Declination
0° 00' 00"
Sunlit
Object was in daylight at epoch
Visualization orbit readout
Latitude
Unknown
Longitude
Unknown
Altitude
Unknown
Speed
Unknown
Apparent Right ascension
Unknown
Apparent Declination
Unknown
Sunlit
N/A
Visualization observer readout
Local Sidereal Time
07:41:53
Azimuth
Unknown
Elevation
Unknown
Doppler factor
Unknown
Orbital elements
Apogee altitude
360.423 km
Perigee altitude
359.488 km
Semi-major axis
6,738.093 km
Eccentricity
0.00007
Inclination
53.158°
RAAN
139.2015°
Arg. of periapsis
127.8687°
True anomaly
232.23311°
Mean anomaly
232.2394°
Eccentric anomaly
232.23626°
Mean motion
3.92408 °/min
Orbital period
91.74 mins
BSTAR
0.000025759
Loading maneuver chart data...
Computing Atmospheric mass density...
Loading historical data...
Loading historical data...
Loading historical data...
Loading historical data...
Loading historical data...
Loading historical data...
Loading historical data...

Documentation

Showing up to 5 results
|